Weather in Sorok

Russia / Republic of Buryatia     52°19′24″N   100°10′27″E
temp.,
°C
wind,
m/s
gust,
m/s
humid.,
%
clouds,
%
prec.,
mm/h
press.,
hPa
HPBL,
m
28 february, sun
sun2823:00−34ssw22738 0.0 104019
02:00−35s227847 0.0 104119
05:00−34s228491 0.0 104119
08:00−35s238076 0.0 104319
11:00−26sw237753 0.0 1039227
14:00−21w696756 0.0 10371365
17:00−21w5867100 0.0 10361406
20:00−29ssw337674 0.0 103919
1 march, mon
mon123:00−31s338210 0.0 103919
02:00−32s23835 0.0 103919
05:00−32s238464 0.0 103719
08:00−31s228358 0.0 103519
11:00−22ssw348082 0.0 1030241
14:00−16sw367175 0.0 1023624
17:00−14sw4117197 0.0 10191022
20:00−22ssw348399 0.0 101928
2 march, tue
tue223:00−21ssw3484100 0.0 101833
02:00−19ssw4483100 0.0 101645
05:00−19ssw4483100 0.0 101447
08:00−18ssw4680100 0.0 101383
11:00−12sw4107696 0.0 1010565
14:00−8w10176798 0.0 10082073
17:00−10wnw71572100 0.3 10081960
20:00−15w597883 0.3 1013175
3 march, wed
wed323:00−18ssw448165 0.0 101433
02:00−19ssw348264 0.0 101427
05:00−16wsw5177833 0.0 1014434
08:00−19sw338428 0.0 101622
11:00−12w7147492 0.0 10131414
14:00−10wnw9157096 0.1 10121836
17:00−11wnw81472100 0.1 10131711
20:00−18wsw338379 0.1 101722
4 march, thu
thu423:00−22e029393 0.0 102020
02:00−26ne119965 0.1 102220
05:00−26ssw0010096 0.0 102420
08:00−27sw1110098 0.1 102820
11:00−19sw118662 0.0 1027222
14:00−13wnw487062 0.0 10261284
17:00−13wnw51069100 0.1 10261619
20:00−20sw228075 0.1 103020